owner,sensor,date,latitude,longitude,vertical_datum,direction_of_sea_water_velocity,sea_water_speed,upward_sea_water_velocity,qcFlag 
TABS,ioos:station:wmo:42045:1,2002-06-01T00:00:00Z,26.2168,-96.4998,2.0,217.8406206,44.25635548,-99999.0,'11111222,11111222,99999999' 
TABS,ioos:station:wmo:42045:1,2002-06-01T00:30:00Z,26.2168,-96.4998,2.0,218.9036298,37.75378789,-99999.0,'11111222,11111222,99999999' 
TABS,ioos:station:wmo:42045:1,2002-06-01T01:00:00Z,26.2168,-96.4998,2.0,222.3133906,37.56743936,-99999.0,'11111222,11111222,99999999' 
TABS,ioos:station:wmo:42045:1,2002-06-01T01:30:00Z,26.2168,-96.4998,2.0,222.4149053,31.0452895,-99999.0,'11111222,11111222,99999999' 
TABS,ioos:station:wmo:42045:1,2002-06-01T02:00:00Z,26.2168,-96.4998,2.0,231.6917367,27.97281001,-99999.0,'11111222,11111222,99999999' 
TABS,ioos:station:wmo:42045:1,2002-06-01T02:30:00Z,26.2168,-96.4998,2.0,239.1771751,22.95172543,-99999.0,'11111222,11111222,99999999' 
TABS,ioos:station:wmo:42045:1,2002-06-01T03:00:00Z,26.2168,-96.4998,2.0,225.9538007,18.68435174,-99999.0,'11111222,11111222,99999999' 
TABS,ioos:station:wmo:42045:1,2002-06-01T04:00:00Z,26.2168,-96.4998,2.0,217.7086628,11.19920086,-99999.0,'11111222,11111222,99999999' 
TABS,ioos:station:wmo:42045:1,2002-06-01T04:30:00Z,26.2168,-96.4998,2.0,242.5141452,9.186952705,-99999.0,'11133222,11111222,99999999' 
TABS,ioos:station:wmo:42045:1,2002-06-01T05:00:00Z,26.2168,-96.4998,2.0,223.8305477,7.970752788,-99999.0,'11133222,11111222,99999999' 
TABS,ioos:station:wmo:42045:1,2002-06-01T05:30:00Z,26.2168,-96.4998,2.0,198.6870973,6.460595948,-99999.0,'11133222,11111222,99999999' 
TABS,ioos:station:wmo:42045:1,2002-06-01T06:00:00Z,26.2168,-96.4998,2.0,181.8516595,4.332262688,-99999.0,'11133222,11111222,99999999' 
TABS,ioos:station:wmo:42045:1,2002-06-01T07:00:00Z,26.2168,-96.4998,2.0,110.2837279,9.605675406,-99999.0,'11133222,11111222,99999999' 
TABS,ioos:station:wmo:42045:1,2002-06-01T07:30:00Z,26.2168,-96.4998,2.0,110.1008221,11.63893896,-99999.0,'11111222,11111222,99999999' 
TABS,ioos:station:wmo:42045:1,2002-06-01T08:00:00Z,26.2168,-96.4998,2.0,103.4465274,17.67450707,-99999.0,'11111222,11111222,99999999' 
TABS,ioos:station:wmo:42045:1,2002-06-01T08:30:00Z,26.2168,-96.4998,2.0,106.3709572,24.40964563,-99999.0,'11111222,11111222,99999999' 
TABS,ioos:station:wmo:42045:1,2002-06-01T09:00:00Z,26.2168,-96.4998,2.0,112.0371253,26.625223,-99999.0,'11111222,11111222,99999999' 
TABS,ioos:station:wmo:42045:1,2002-06-01T10:00:00Z,26.2168,-96.4998,2.0,122.2570062,35.71167316,-99999.0,'11111222,11111222,99999999' 
TABS,ioos:station:wmo:42045:1,2002-06-01T10:30:00Z,26.2168,-96.4998,2.0,126.5121374,30.75659929,-99999.0,'11111222,11111222,99999999' 
TABS,ioos:station:wmo:42045:1,2002-06-01T11:00:00Z,26.2168,-96.4998,2.0,128.5776044,22.88416483,-99999.0,'11111222,11111222,99999999' 
TABS,ioos:station:wmo:42045:1,2002-06-01T11:30:00Z,26.2168,-96.4998,2.0,128.953939,25.24269795,-99999.0,'11111222,11111222,99999999' 
TABS,ioos:station:wmo:42045:1,2002-06-01T12:00:00Z,26.2168,-96.4998,2.0,124.124862,29.23354238,-99999.0,'11111222,11111222,99999999' 
TABS,ioos:station:wmo:42045:1,2002-06-01T13:00:00Z,26.2168,-96.4998,2.0,129.8734411,26.9850718,-99999.0,'11111222,11111222,99999999' 
TABS,ioos:station:wmo:42045:1,2002-06-01T13:30:00Z,26.2168,-96.4998,2.0,133.7117739,28.62384495,-99999.0,'11111222,11111222,99999999' 
TABS,ioos:station:wmo:42045:1,2002-06-01T14:00:00Z,26.2168,-96.4998,2.0,134.0441457,29.67432897,-99999.0,'11111222,11111222,99999999' 
TABS,ioos:station:wmo:42045:1,2002-06-01T14:30:00Z,26.2168,-96.4998,2.0,141.3922535,29.15140648,-99999.0,'11111222,11111222,99999999' 
TABS,ioos:station:wmo:42045:1,2002-06-01T15:00:00Z,26.2168,-96.4998,2.0,145.3224252,28.64897206,-99999.0,'11111222,11111222,99999999' 
TABS,ioos:station:wmo:42045:1,2002-06-01T16:00:00Z,26.2168,-96.4998,2.0,142.2657736,35.67005747,-99999.0,'11111222,11111222,99999999' 
TABS,ioos:station:wmo:42045:1,2002-06-01T16:30:00Z,26.2168,-96.4998,2.0,144.349405,39.56496051,-99999.0,'11111222,11111222,99999999' 
TABS,ioos:station:wmo:42045:1,2002-06-01T17:00:00Z,26.2168,-96.4998,2.0,156.9593335,39.50106454,-99999.0,'11111222,11111222,99999999' 
TABS,ioos:station:wmo:42045:1,2002-06-01T17:30:00Z,26.2168,-96.4998,2.0,158.0015923,41.62014176,-99999.0,'11111222,11111222,99999999' 
TABS,ioos:station:wmo:42045:1,2002-06-01T18:00:00Z,26.2168,-96.4998,2.0,159.9066708,44.47708736,-99999.0,'11111222,11111222,99999999' 
TABS,ioos:station:wmo:42045:1,2002-06-01T19:00:00Z,26.2168,-96.4998,2.0,160.1631746,46.7967392,-99999.0,'11111222,11111222,99999999' 
TABS,ioos:station:wmo:42045:1,2002-06-01T19:30:00Z,26.2168,-96.4998,2.0,164.0160431,45.1037249,-99999.0,'11111222,11111222,99999999' 
TABS,ioos:station:wmo:42045:1,2002-06-01T20:00:00Z,26.2168,-96.4998,2.0,162.2743463,50.05636823,-99999.0,'11111222,11111222,99999999' 
TABS,ioos:station:wmo:42045:1,2002-06-01T20:30:00Z,26.2168,-96.4998,2.0,167.6568945,50.14916251,-99999.0,'11111222,11111222,99999999' 
TABS,ioos:station:wmo:42045:1,2002-06-01T21:00:00Z,26.2168,-96.4998,2.0,170.9942051,52.38575761,-99999.0,'11111222,11111222,99999999' 
TABS,ioos:station:wmo:42045:1,2002-06-01T22:00:00Z,26.2168,-96.4998,2.0,187.2068891,49.33982773,-99999.0,'11111222,11111222,99999999' 
TABS,ioos:station:wmo:42045:1,2002-06-01T22:30:00Z,26.2168,-96.4998,2.0,186.7103079,48.00890022,-99999.0,'11111222,11111222,99999999' 
TABS,ioos:station:wmo:42045:1,2002-06-01T23:00:00Z,26.2168,-96.4998,2.0,194.7729874,46.19715684,-99999.0,'11111222,11111222,99999999' 
TABS,ioos:station:wmo:42045:1,2002-06-01T23:30:00Z,26.2168,-96.4998,2.0,194.3750423,44.26595193,-99999.0,'11111222,11111222,99999999' 
TABS,ioos:station:wmo:42045:1,2002-06-02T00:00:00Z,26.2168,-96.4998,2.0,199.9887125,41.74476973,-99999.0,'11111222,11111222,99999999' 
TABS,ioos:station:wmo:42045:1,2002-06-02T01:00:00Z,26.2168,-96.4998,2.0,204.2393296,39.6781615,-99999.0,'11111222,11111222,99999999' 
TABS,ioos:station:wmo:42045:1,2002-06-02T01:30:00Z,26.2168,-96.4998,2.0,212.4122214,38.18950772,-99999.0,'11111222,11111222,99999999' 
TABS,ioos:station:wmo:42045:1,2002-06-02T02:00:00Z,26.2168,-96.4998,2.0,214.5261517,34.58092104,-99999.0,'11111222,11111222,99999999' 
TABS,ioos:station:wmo:42045:1,2002-06-02T02:30:00Z,26.2168,-96.4998,2.0,221.0981347,34.50191879,-99999.0,'11111222,11111222,99999999' 
TABS,ioos:station:wmo:42045:1,2002-06-02T03:00:00Z,26.2168,-96.4998,2.0,220.7682211,33.4453958,-99999.0,'11111222,11111222,99999999' 
TABS,ioos:station:wmo:42045:1,2002-06-02T04:00:00Z,26.2168,-96.4998,2.0,223.4678116,32.26974434,-99999.0,'11111222,11111222,99999999' 
TABS,ioos:station:wmo:42045:1,2002-06-02T04:30:00Z,26.2168,-96.4998,2.0,221.3646869,24.98284611,-99999.0,'11111222,11111222,99999999' 
TABS,ioos:station:wmo:42045:1,2002-06-02T05:00:00Z,26.2168,-96.4998,2.0,225.1015733,23.85782052,-99999.0,'11111222,11111222,99999999' 
TABS,ioos:station:wmo:42045:1,2002-06-02T05:30:00Z,26.2168,-96.4998,2.0,228.9514554,21.13617752,-99999.0,'11111222,11111222,99999999' 
TABS,ioos:station:wmo:42045:1,2002-06-02T06:00:00Z,26.2168,-96.4998,2.0,234.2422179,20.91194156,-99999.0,'11111222,11111222,99999999' 
TABS,ioos:station:wmo:42045:1,2002-06-02T07:00:00Z,26.2168,-96.4998,2.0,240.6190399,13.65650028,-99999.0,'11111222,11111222,99999999' 
TABS,ioos:station:wmo:42045:1,2002-06-02T07:30:00Z,26.2168,-96.4998,2.0,228.6910617,5.271811833,-99999.0,'11133222,11111222,99999999' 
TABS,ioos:station:wmo:42045:1,2002-06-02T08:00:00Z,26.2168,-96.4998,2.0,228.5444425,3.20224921,-99999.0,'11133222,11111222,99999999' 
TABS,ioos:station:wmo:42045:1,2002-06-02T08:30:00Z,26.2168,-96.4998,2.0,163.5839286,3.680013587,-99999.0,'11133222,11111222,99999999' 
TABS,ioos:station:wmo:42045:1,2002-06-02T09:00:00Z,26.2168,-96.4998,2.0,164.5562347,2.666270804,-99999.0,'11133222,11111222,99999999' 
TABS,ioos:station:wmo:42045:1,2002-06-02T10:00:00Z,26.2168,-96.4998,2.0,125.4256893,4.761512365,-99999.0,'11133222,11111222,99999999' 
TABS,ioos:station:wmo:42045:1,2002-06-02T10:30:00Z,26.2168,-96.4998,2.0,109.4893078,5.155385534,-99999.0,'11133222,11111222,99999999' 
TABS,ioos:station:wmo:42045:1,2002-06-02T11:00:00Z,26.2168,-96.4998,2.0,78.55496298,3.326138903,-99999.0,'11133222,11111222,99999999' 
TABS,ioos:station:wmo:42045:1,2002-06-02T11:30:00Z,26.2168,-96.4998,2.0,62.84105822,5.608359832,-99999.0,'11133222,11111222,99999999' 
TABS,ioos:station:wmo:42045:1,2002-06-02T12:00:00Z,26.2168,-96.4998,2.0,19.44019983,4.326661531,-99999.0,'11133222,11111222,99999999' 
TABS,ioos:station:wmo:42045:1,2002-06-02T13:00:00Z,26.2168,-96.4998,2.0,58.42376994,7.218787987,-99999.0,'11133222,11111222,99999999' 
TABS,ioos:station:wmo:42045:1,2002-06-02T13:30:00Z,26.2168,-96.4998,2.0,58.69385368,9.468606022,-99999.0,'11133222,11111222,99999999' 
TABS,ioos:station:wmo:42045:1,2002-06-02T14:00:00Z,26.2168,-96.4998,2.0,52.95868802,8.018035919,-99999.0,'11133222,11111222,99999999' 
TABS,ioos:station:wmo:42045:1,2002-06-02T14:30:00Z,26.2168,-96.4998,2.0,63.38330009,9.910257313,-99999.0,'11133222,11111222,99999999' 
TABS,ioos:station:wmo:42045:1,2002-06-02T15:00:00Z,26.2168,-96.4998,2.0,67.85071722,10.39727368,-99999.0,'11111222,11111222,99999999' 
TABS,ioos:station:wmo:42045:1,2002-06-02T16:00:00Z,26.2168,-96.4998,2.0,71.67287957,11.76685599,-99999.0,'11111222,11111222,99999999' 
TABS,ioos:station:wmo:42045:1,2002-06-02T16:30:00Z,26.2168,-96.4998,2.0,80.86381489,16.75252817,-99999.0,'11111222,11111222,99999999' 
TABS,ioos:station:wmo:42045:1,2002-06-02T17:00:00Z,26.2168,-96.4998,2.0,92.11691369,20.30385678,-99999.0,'11111222,11111222,99999999' 
TABS,ioos:station:wmo:42045:1,2002-06-02T17:30:00Z,26.2168,-96.4998,2.0,108.3235801,19.5302637,-99999.0,'11111222,11111222,99999999' 
TABS,ioos:station:wmo:42045:1,2002-06-02T18:00:00Z,26.2168,-96.4998,2.0,137.3983105,21.62812983,-99999.0,'11111222,11111222,99999999' 
TABS,ioos:station:wmo:42045:1,2002-06-02T19:00:00Z,26.2168,-96.4998,2.0,137.0786243,26.90190328,-99999.0,'11111222,11111222,99999999' 
TABS,ioos:station:wmo:42045:1,2002-06-02T19:30:00Z,26.2168,-96.4998,2.0,138.632837,28.56795407,-99999.0,'11111222,11111222,99999999' 
TABS,ioos:station:wmo:42045:1,2002-06-02T20:00:00Z,26.2168,-96.4998,2.0,142.5593018,31.92758369,-99999.0,'11111222,11111222,99999999' 
TABS,ioos:station:wmo:42045:1,2002-06-02T20:30:00Z,26.2168,-96.4998,2.0,143.7277417,38.72410748,-99999.0,'11111222,11111222,99999999' 
TABS,ioos:station:wmo:42045:1,2002-06-02T21:00:00Z,26.2168,-96.4998,2.0,147.154808,35.7321256,-99999.0,'11111222,11111222,99999999' 
TABS,ioos:station:wmo:42045:1,2002-06-02T22:00:00Z,26.2168,-96.4998,2.0,152.168771,42.30331665,-99999.0,'11111222,11111222,99999999' 
TABS,ioos:station:wmo:42045:1,2002-06-02T22:30:00Z,26.2168,-96.4998,2.0,152.4904873,40.16076319,-99999.0,'11111222,11111222,99999999' 
TABS,ioos:station:wmo:42045:1,2002-06-02T23:00:00Z,26.2168,-96.4998,2.0,156.031121,37.31803317,-99999.0,'11111222,11111222,99999999' 
TABS,ioos:station:wmo:42045:1,2002-06-02T23:30:00Z,26.2168,-96.4998,2.0,155.5423186,38.4282253,-99999.0,'11111222,11111222,99999999' 
TABS,ioos:station:wmo:42045:1,2002-06-03T00:00:00Z,26.2168,-96.4998,2.0,154.9223002,36.52282574,-99999.0,'11111222,11111222,99999999' 
TABS,ioos:station:wmo:42045:1,2002-06-03T01:00:00Z,26.2168,-96.4998,2.0,160.2415475,39.84583918,-99999.0,'11111222,11111222,99999999' 
TABS,ioos:station:wmo:42045:1,2002-06-03T01:30:00Z,26.2168,-96.4998,2.0,167.1344218,41.54289951,-99999.0,'11111222,11111222,99999999' 
TABS,ioos:station:wmo:42045:1,2002-06-03T02:00:00Z,26.2168,-96.4998,2.0,171.4154483,43.34559378,-99999.0,'11111222,11111222,99999999' 
TABS,ioos:station:wmo:42045:1,2002-06-03T02:30:00Z,26.2168,-96.4998,2.0,174.2241783,39.45026489,-99999.0,'11111222,11111222,99999999' 
TABS,ioos:station:wmo:42045:1,2002-06-03T03:00:00Z,26.2168,-96.4998,2.0,176.6380343,42.97395025,-99999.0,'11111222,11111222,99999999' 
TABS,ioos:station:wmo:42045:1,2002-06-03T04:00:00Z,26.2168,-96.4998,2.0,177.2085399,38.60580267,-99999.0,'11111222,11111222,99999999' 
TABS,ioos:station:wmo:42045:1,2002-06-03T04:30:00Z,26.2168,-96.4998,2.0,179.0166782,36.13531929,-99999.0,'11111222,11111222,99999999' 
TABS,ioos:station:wmo:42045:1,2002-06-03T05:00:00Z,26.2168,-96.4998,2.0,187.2136065,33.60601137,-99999.0,'11111222,11111222,99999999' 
TABS,ioos:station:wmo:42045:1,2002-06-03T05:30:00Z,26.2168,-96.4998,2.0,192.7191459,29.02220185,-99999.0,'11111222,11111222,99999999' 
TABS,ioos:station:wmo:42045:1,2002-06-03T06:00:00Z,26.2168,-96.4998,2.0,198.0975651,31.70870701,-99999.0,'11111222,11111222,99999999' 
TABS,ioos:station:wmo:42045:1,2002-06-03T07:00:00Z,26.2168,-96.4998,2.0,192.8486382,25.04718148,-99999.0,'11111222,11111222,99999999' 
TABS,ioos:station:wmo:42045:1,2002-06-03T07:30:00Z,26.2168,-96.4998,2.0,198.2922703,17.81000281,-99999.0,'11111222,11111222,99999999' 
TABS,ioos:station:wmo:42045:1,2002-06-03T08:00:00Z,26.2168,-96.4998,2.0,200.5381965,15.24929179,-99999.0,'11111222,11111222,99999999' 
TABS,ioos:station:wmo:42045:1,2002-06-03T08:30:00Z,26.2168,-96.4998,2.0,210.002377,15.43875967,-99999.0,'11111222,11111222,99999999' 
TABS,ioos:station:wmo:42045:1,2002-06-03T09:00:00Z,26.2168,-96.4998,2.0,230.5079475,12.15472336,-99999.0,'11111222,11111222,99999999' 
TABS,ioos:station:wmo:42045:1,2002-06-03T10:00:00Z,26.2168,-96.4998,2.0,266.8697113,12.08803127,-99999.0,'11111222,11111222,99999999' 
TABS,ioos:station:wmo:42045:1,2002-06-03T10:30:00Z,26.2168,-96.4998,2.0,285.6048324,9.92585009,-99999.0,'11133222,11111222,99999999' 
TABS,ioos:station:wmo:42045:1,2002-06-03T11:00:00Z,26.2168,-96.4998,2.0,285.9543298,9.204531493,-99999.0,'11133222,11111222,99999999' 
TABS,ioos:station:wmo:42045:1,2002-06-03T11:30:00Z,26.2168,-96.4998,2.0,312.2681061,6.526944155,-99999.0,'11133222,11111222,99999999' 
TABS,ioos:station:wmo:42045:1,2002-06-03T12:00:00Z,26.2168,-96.4998,2.0,345.3267334,9.1587117,-99999.0,'11133222,11111222,99999999' 
TABS,ioos:station:wmo:42045:1,2002-06-03T12:30:00Z,26.2168,-96.4998,2.0,342.7237672,9.697525458,-99999.0,'11133222,11111222,99999999' 
TABS,ioos:station:wmo:42045:1,2002-06-03T13:00:00Z,26.2168,-96.4998,2.0,353.0030378,12.23109562,-99999.0,'11111222,11111222,99999999' 
TABS,ioos:station:wmo:42045:1,2002-06-03T13:30:00Z,26.2168,-96.4998,2.0,359.1297635,14.48167117,-99999.0,'11111222,11144222,99999999' 
TABS,ioos:station:wmo:42045:1,2002-06-03T14:00:00Z,26.2168,-96.4998,2.0,9.49138066,16.31331358,-99999.0,'11111222,11111222,99999999' 
TABS,ioos:station:wmo:42045:1,2002-06-03T14:30:00Z,26.2168,-96.4998,2.0,9.097116652,17.01399718,-99999.0,'11111222,11111222,99999999' 
TABS,ioos:station:wmo:42045:1,2002-06-03T15:00:00Z,26.2168,-96.4998,2.0,18.76715419,19.64439869,-99999.0,'11111222,11111222,99999999' 
TABS,ioos:station:wmo:42045:1,2002-06-03T16:00:00Z,26.2168,-96.4998,2.0,34.75966215,18.57459825,-99999.0,'11111222,11111222,99999999' 
TABS,ioos:station:wmo:42045:1,2002-06-03T16:30:00Z,26.2168,-96.4998,2.0,50.19452199,25.53951644,-99999.0,'11111222,11111222,99999999' 
TABS,ioos:station:wmo:42045:1,2002-06-03T17:00:00Z,26.2168,-96.4998,2.0,55.75303126,25.39260128,-99999.0,'11111222,11111222,99999999' 
TABS,ioos:station:wmo:42045:1,2002-06-03T17:30:00Z,26.2168,-96.4998,2.0,53.30899157,26.27612795,-99999.0,'11111222,11111222,99999999' 
TABS,ioos:station:wmo:42045:1,2002-06-03T18:00:00Z,26.2168,-96.4998,2.0,55.21094904,30.07583083,-99999.0,'11111222,11111222,99999999' 
TABS,ioos:station:wmo:42045:1,2002-06-03T19:00:00Z,26.2168,-96.4998,2.0,59.28452234,34.04621859,-99999.0,'11111222,11111222,99999999' 
TABS,ioos:station:wmo:42045:1,2002-06-03T19:30:00Z,26.2168,-96.4998,2.0,55.13179343,30.34851726,-99999.0,'11111222,11111222,99999999' 
TABS,ioos:station:wmo:42045:1,2002-06-03T20:00:00Z,26.2168,-96.4998,2.0,69.73054481,30.42405627,-99999.0,'11111222,11111222,99999999' 
TABS,ioos:station:wmo:42045:1,2002-06-03T20:30:00Z,26.2168,-96.4998,2.0,72.86900348,35.71452506,-99999.0,'11111222,11111222,99999999' 
TABS,ioos:station:wmo:42045:1,2002-06-03T21:00:00Z,26.2168,-96.4998,2.0,88.6477089,35.16979528,-99999.0,'11111222,11111222,99999999' 
TABS,ioos:station:wmo:42045:1,2002-06-03T21:30:00Z,26.2168,-96.4998,2.0,87.89681517,30.79074212,-99999.0,'11111222,11111222,99999999' 
TABS,ioos:station:wmo:42045:1,2002-06-03T22:00:00Z,26.2168,-96.4998,2.0,94.40981882,31.60355993,-99999.0,'11111222,11111222,99999999' 
TABS,ioos:station:wmo:42045:1,2002-06-03T22:30:00Z,26.2168,-96.4998,2.0,93.21820373,30.63831751,-99999.0,'11111222,11111222,99999999' 
TABS,ioos:station:wmo:42045:1,2002-06-03T23:00:00Z,26.2168,-96.4998,2.0,88.33004606,30.88311675,-99999.0,'11111222,11111222,99999999' 
TABS,ioos:station:wmo:42045:1,2002-06-03T23:30:00Z,26.2168,-96.4998,2.0,106.1273159,29.84448023,-99999.0,'11111222,11111222,99999999' 
TABS,ioos:station:wmo:42045:1,2002-06-04T00:00:00Z,26.2168,-96.4998,2.0,110.8214535,24.75680916,-99999.0,'11111222,11111222,99999999' 
TABS,ioos:station:wmo:42045:1,2002-06-04T01:00:00Z,26.2168,-96.4998,2.0,128.6260284,26.56047628,-99999.0,'11111222,11111222,99999999' 
TABS,ioos:station:wmo:42045:1,2002-06-04T01:30:00Z,26.2168,-96.4998,2.0,133.1540389,29.85539817,-99999.0,'11111222,11111222,99999999' 
TABS,ioos:station:wmo:42045:1,2002-06-04T02:00:00Z,26.2168,-96.4998,2.0,132.2859977,31.06268501,-99999.0,'11111222,11111222,99999999' 
TABS,ioos:station:wmo:42045:1,2002-06-04T02:30:00Z,26.2168,-96.4998,2.0,138.4250706,31.60048259,-99999.0,'11111222,11111222,99999999' 
TABS,ioos:station:wmo:42045:1,2002-06-04T03:00:00Z,26.2168,-96.4998,2.0,138.0294968,32.91232292,-99999.0,'11111222,11111222,99999999' 
TABS,ioos:station:wmo:42045:1,2002-06-04T04:00:00Z,26.2168,-96.4998,2.0,150.5932491,31.30319153,-99999.0,'11111222,11111222,99999999' 
TABS,ioos:station:wmo:42045:1,2002-06-04T04:30:00Z,26.2168,-96.4998,2.0,155.9137595,31.53570992,-99999.0,'11111222,11111222,99999999' 
TABS,ioos:station:wmo:42045:1,2002-06-04T05:00:00Z,26.2168,-96.4998,2.0,157.6249561,29.68488673,-99999.0,'11111222,11111222,99999999' 
TABS,ioos:station:wmo:42045:1,2002-06-04T05:30:00Z,26.2168,-96.4998,2.0,158.6404026,26.96190832,-99999.0,'11111222,11111222,99999999' 
TABS,ioos:station:wmo:42045:1,2002-06-04T06:00:00Z,26.2168,-96.4998,2.0,163.2459588,25.11613227,-99999.0,'11111222,11111222,99999999' 
TABS,ioos:station:wmo:42045:1,2002-06-04T07:00:00Z,26.2168,-96.4998,2.0,149.9537031,17.45564952,-99999.0,'11111222,11111222,99999999' 
TABS,ioos:station:wmo:42045:1,2002-06-04T07:30:00Z,26.2168,-96.4998,2.0,143.8654309,15.73729646,-99999.0,'11111222,11111222,99999999' 
TABS,ioos:station:wmo:42045:1,2002-06-04T08:00:00Z,26.2168,-96.4998,2.0,195.4341689,17.09657568,-99999.0,'11111222,11111222,99999999' 
TABS,ioos:station:wmo:42045:1,2002-06-04T08:30:00Z,26.2168,-96.4998,2.0,159.6667749,6.014790104,-99999.0,'11133222,11111222,99999999' 
TABS,ioos:station:wmo:42045:1,2002-06-04T09:00:00Z,26.2168,-96.4998,2.0,201.421013,5.038025407,-99999.0,'11133222,11111222,99999999' 
TABS,ioos:station:wmo:42045:1,2002-06-04T10:00:00Z,26.2168,-96.4998,2.0,233.6909715,2.246107745,-99999.0,'11133222,11111222,99999999' 
TABS,ioos:station:wmo:42045:1,2002-06-04T10:30:00Z,26.2168,-96.4998,2.0,20.86778207,1.937059627,-99999.0,'11133222,11111222,99999999' 
TABS,ioos:station:wmo:42045:1,2002-06-04T11:00:00Z,26.2168,-96.4998,2.0,350.5379104,3.10220889,-99999.0,'11133222,11111222,99999999' 
TABS,ioos:station:wmo:42045:1,2002-06-04T11:30:00Z,26.2168,-96.4998,2.0,14.2415359,4.064923124,-99999.0,'11133222,11111222,99999999' 
TABS,ioos:station:wmo:42045:1,2002-06-04T12:00:00Z,26.2168,-96.4998,2.0,5.582803161,8.018029683,-99999.0,'11133222,11111222,99999999' 
TABS,ioos:station:wmo:42045:1,2002-06-04T13:00:00Z,26.2168,-96.4998,2.0,0.566774395,8.09039554,-99999.0,'11133222,11111222,99999999' 
TABS,ioos:station:wmo:42045:1,2002-06-04T13:30:00Z,26.2168,-96.4998,2.0,13.08055446,13.52081728,-99999.0,'11111222,11111222,99999999' 
TABS,ioos:station:wmo:42045:1,2002-06-04T14:00:00Z,26.2168,-96.4998,2.0,11.06444824,12.34954655,-99999.0,'11111222,11111222,99999999' 
TABS,ioos:station:wmo:42045:1,2002-06-04T14:30:00Z,26.2168,-96.4998,2.0,21.0707632,16.16052289,-99999.0,'11111222,11111222,99999999' 
TABS,ioos:station:wmo:42045:1,2002-06-04T15:00:00Z,26.2168,-96.4998,2.0,25.6462315,20.35530889,-99999.0,'11111222,11111222,99999999' 
TABS,ioos:station:wmo:42045:1,2002-06-04T16:00:00Z,26.2168,-96.4998,2.0,31.34396687,22.49253432,-99999.0,'11111222,11111222,99999999' 
TABS,ioos:station:wmo:42045:1,2002-06-04T16:30:00Z,26.2168,-96.4998,2.0,43.41554235,22.24701553,-99999.0,'11111222,11111222,99999999' 
TABS,ioos:station:wmo:42045:1,2002-06-04T17:00:00Z,26.2168,-96.4998,2.0,53.63088684,22.42885641,-99999.0,'11111222,11111222,99999999' 
TABS,ioos:station:wmo:42045:1,2002-06-04T17:30:00Z,26.2168,-96.4998,2.0,52.44483176,23.57568663,-99999.0,'11111222,11111222,99999999' 
TABS,ioos:station:wmo:42045:1,2002-06-04T18:00:00Z,26.2168,-96.4998,2.0,58.48842911,23.49466535,-99999.0,'11111222,11111222,99999999' 
TABS,ioos:station:wmo:42045:1,2002-06-04T19:00:00Z,26.2168,-96.4998,2.0,65.89632564,27.59617727,-99999.0,'11111222,11111222,99999999' 
TABS,ioos:station:wmo:42045:1,2002-06-04T19:30:00Z,26.2168,-96.4998,2.0,68.91493965,28.51946178,-99999.0,'11111222,11111222,99999999' 
TABS,ioos:station:wmo:42045:1,2002-06-04T20:00:00Z,26.2168,-96.4998,2.0,71.48582897,27.42962267,-99999.0,'11111222,11111222,99999999' 
TABS,ioos:station:wmo:42045:1,2002-06-04T20:30:00Z,26.2168,-96.4998,2.0,75.62316916,31.41376927,-99999.0,'11111222,11111222,99999999' 
TABS,ioos:station:wmo:42045:1,2002-06-04T21:00:00Z,26.2168,-96.4998,2.0,73.5649057,32.62295204,-99999.0,'11111222,11111222,99999999' 
TABS,ioos:station:wmo:42045:1,2002-06-04T22:00:00Z,26.2168,-96.4998,2.0,84.36429642,33.50193576,-99999.0,'11111222,11111222,99999999' 
TABS,ioos:station:wmo:42045:1,2002-06-04T22:30:00Z,26.2168,-96.4998,2.0,93.8997262,34.25932428,-99999.0,'11111222,11111222,99999999' 
TABS,ioos:station:wmo:42045:1,2002-06-04T23:00:00Z,26.2168,-96.4998,2.0,98.31408686,29.94471239,-99999.0,'11111222,11111222,99999999' 
TABS,ioos:station:wmo:42045:1,2002-06-04T23:30:00Z,26.2168,-96.4998,2.0,104.1784302,29.31294595,-99999.0,'11111222,11111222,99999999' 
TABS,ioos:station:wmo:42045:1,2002-06-05T00:00:00Z,26.2168,-96.4998,2.0,108.6498977,33.71011718,-99999.0,'11111222,11111222,99999999' 
TABS,ioos:station:wmo:42045:1,2002-06-05T01:00:00Z,26.2168,-96.4998,2.0,116.4487316,26.44826648,-99999.0,'11111222,11111222,99999999' 
TABS,ioos:station:wmo:42045:1,2002-06-05T01:30:00Z,26.2168,-96.4998,2.0,117.0164356,26.10914016,-99999.0,'11111222,11111222,99999999' 
TABS,ioos:station:wmo:42045:1,2002-06-05T02:00:00Z,26.2168,-96.4998,2.0,112.1950424,23.24217718,-99999.0,'11111222,11111222,99999999' 
TABS,ioos:station:wmo:42045:1,2002-06-05T02:30:00Z,26.2168,-96.4998,2.0,123.9286364,23.97157692,-99999.0,'11111222,11111222,99999999' 
TABS,ioos:station:wmo:42045:1,2002-06-05T03:00:00Z,26.2168,-96.4998,2.0,131.0676468,23.71562354,-99999.0,'11111222,11111222,99999999' 
TABS,ioos:station:wmo:42045:1,2002-06-05T03:30:00Z,26.2168,-96.4998,2.0,133.770878,22.08802617,-99999.0,'11111222,11111222,99999999' 
TABS,ioos:station:wmo:42045:1,2002-06-05T04:00:00Z,26.2168,-96.4998,2.0,135.7339436,22.07768557,-99999.0,'11111222,11111222,99999999' 
TABS,ioos:station:wmo:42045:1,2002-06-05T04:30:00Z,26.2168,-96.4998,2.0,139.7671532,18.54793789,-99999.0,'11111222,11111222,99999999' 
TABS,ioos:station:wmo:42045:1,2002-06-05T05:00:00Z,26.2168,-96.4998,2.0,138.2820716,19.76069331,-99999.0,'11111222,11111222,99999999' 
TABS,ioos:station:wmo:42045:1,2002-06-05T05:30:00Z,26.2168,-96.4998,2.0,133.0935689,19.13075534,-99999.0,'11111222,11111222,99999999' 
TABS,ioos:station:wmo:42045:1,2002-06-05T06:00:00Z,26.2168,-96.4998,2.0,138.4156412,14.47898477,-99999.0,'11111222,11111222,99999999' 
TABS,ioos:station:wmo:42045:1,2002-06-05T07:00:00Z,26.2168,-96.4998,2.0,134.9432225,7.148853055,-99999.0,'11133222,11111222,99999999' 
TABS,ioos:station:wmo:42045:1,2002-06-05T07:30:00Z,26.2168,-96.4998,2.0,98.10392493,9.292798287,-99999.0,'11133222,11111222,99999999' 